Lansing, MI

6:38 AM EST on February 08, 2016 (GMT -0500)
Capital City

Weather History for KLAN - November, 2012

Change the Weather History Date:

Tuesday, November 6, 2012

  Actual Average Record
Temperature  
Mean Temperature 33 °F 43 °F  
Max Temperature 42 °F 51 °F 77 °F (1975)
Min Temperature 24 °F 35 °F 4 °F (1877)
Degree Days  
Heating Degree Days 32 22  
Month to date heating degree days 181 125  
Since 1 July heating degree days 803 775  
Cooling Degree Days 0 0  
Month to date cooling degree days 0 0  
Year to date cooling degree days 940 625  
Moisture  
Dew Point 25 °F    
Average Humidity 73    
Maximum Humidity 92    
Minimum Humidity 54    
Precipitation  
Precipitation 0.00 in 0.09 in 1.51 in (1880)
Month to date precipitation T 0.57  
Year to date precipitation 26.05 27.69  
Snow  
Snow 0.00 in 0.10 in 12.00 in (1880)
Month to date snowfall 0.0 0.3  
Since 1 July snowfall 0.1 0.7  
Since 1 September snowfall 0.1 0.7  
Snow Depth 0.00 in    
Sea Level Pressure  
Sea Level Pressure 30.08 in    
Wind  
Wind Speed 6 mph (SE)    
Max Wind Speed 14 mph    
Max Gust Speed 18 mph    
Visibility 10 miles    
Events      
T = Trace of Precipitation, MM = Missing Value Source: NWS Daily Summary

Daily Weather History Graph

Daily Weather History Graph

Search for Another Location

Airport or City:

Trip Planner

Search our weather history database for the weather conditions in past years. The results will help you decide how hot, cold, wet, or windy it might be!

Date:

Astronomy

Nov. 06, 2012 Rise Set
Actual Time 7:19 AM EST 5:24 PM EST
Civil Twilight 6:49 AM EST 5:53 PM EST
Nautical Twilight 6:15 AM EST 6:27 PM EST
Astronomical Twilight 5:42 AM EST 7:00 PM EST
Moon No Moon Rise 1:09 PM EST (11/6)
Length of Visible Light 11h 04m
Length of Day
10h 04m
Waning Gibbous, 53% of the Moon is Illuminated
Nov 6
Waning Gibbous
Nov 6
Last Quarter
Nov 13
New
Nov 20
First Quarter
Nov 28
Full

Hourly Weather History & Observations

Time (EST) Temp. Windchill Dew Point Humidity Pressure Visibility Wind Dir Wind Speed Gust Speed Precip Events Conditions
12:53 AM 28.0 °F - 25.0 °F 88% 30.18 in 10.0 mi Calm Calm - N/A   Overcast
1:53 AM 28.9 °F - 24.1 °F 82% 30.17 in 10.0 mi Calm Calm - N/A   Scattered Clouds
2:53 AM 27.0 °F - 24.1 °F 89% 30.17 in 10.0 mi Calm Calm - N/A   Overcast
3:53 AM 27.0 °F - 23.0 °F 85% 30.15 in 10.0 mi Calm Calm - N/A   Mostly Cloudy
4:53 AM 25.0 °F - 21.9 °F 88% 30.13 in 8.0 mi Calm Calm - N/A   Partly Cloudy
5:53 AM 24.1 °F - 21.0 °F 88% 30.13 in 9.0 mi Calm Calm - N/A   Partly Cloudy
6:53 AM 25.0 °F - 21.9 °F 88% 30.13 in 7.0 mi Calm Calm - N/A   Scattered Clouds
7:53 AM 25.0 °F - 21.9 °F 88% 30.14 in 6.0 mi Calm Calm - N/A   Scattered Clouds
8:53 AM 30.0 °F 22.4 °F 26.1 °F 85% 30.13 in 8.0 mi SE 8.1 mph - N/A   Partly Cloudy
9:53 AM 34.0 °F 27.2 °F 27.0 °F 75% 30.12 in 10.0 mi SSE 8.1 mph - N/A   Partly Cloudy
10:53 AM 37.0 °F 30.4 °F 28.0 °F 70% 30.12 in 10.0 mi South 9.2 mph - N/A   Overcast
11:53 AM 37.9 °F 30.9 °F 27.0 °F 65% 30.09 in 10.0 mi SSE 10.4 mph - N/A   Overcast
12:53 PM 39.0 °F 31.8 °F 26.1 °F 60% 30.06 in 10.0 mi SE 11.5 mph - N/A   Overcast
1:53 PM 39.9 °F 33.4 °F 25.0 °F 55% 30.04 in 10.0 mi SSE 10.4 mph - N/A   Mostly Cloudy
2:53 PM 41.0 °F 36.4 °F 26.1 °F 55% 30.03 in 10.0 mi South 6.9 mph - N/A   Mostly Cloudy
3:53 PM 39.9 °F 32.9 °F 25.0 °F 55% 30.01 in 10.0 mi SSE 11.5 mph - N/A   Mostly Cloudy
4:53 PM 39.9 °F 33.9 °F 25.0 °F 55% 30.01 in 10.0 mi ESE 9.2 mph - N/A   Mostly Cloudy
5:53 PM 37.9 °F 32.7 °F 26.1 °F 62% 30.01 in 10.0 mi ESE 6.9 mph - N/A   Mostly Cloudy
6:53 PM 36.0 °F 31.1 °F 25.0 °F 64% 30.02 in 10.0 mi ESE 5.8 mph - N/A   Scattered Clouds
7:53 PM 35.1 °F 27.9 °F 25.0 °F 67% 30.02 in 10.0 mi SE 9.2 mph - N/A   Scattered Clouds
8:53 PM 34.0 °F 27.2 °F 25.0 °F 70% 30.03 in 10.0 mi SE 8.1 mph - N/A   Scattered Clouds
9:53 PM 35.1 °F 27.9 °F 26.1 °F 70% 30.02 in 10.0 mi ESE 9.2 mph - N/A   Overcast
10:53 PM 36.0 °F 29.6 °F 26.1 °F 67% 30.01 in 10.0 mi ESE 8.1 mph - N/A   Overcast
11:53 PM 35.1 °F 29.3 °F 27.0 °F 72% 30.00 in 10.0 mi East 6.9 mph - N/A   Overcast